User: anonymous   Login
Location: Domont
(49.0278°N, 2.3264°E)
Time: 10:28:10
(UTC+00:00)
Language:

SL-16 DEB - Orbit

View from above orbital plane
View from above orbital plane
View from above satellite
View from above satellite

Ground track
Ground track

The orbit data is extracted from the following two-line orbital elements,

1 39845U 92093KX  22228.31943888  .00000413  00000-0  26272-3 0  9992
2 39845  70.9803 107.1082 0135693 274.5417  84.0211 14.05172010960422
Epoch (UTC): 16 August 2022 07:39:59
Eccentricity: 0.0135693
inclination: 70.9803°
perigee height: 777 km
apogee height: 974 km
right ascension of ascending node: 107.1082°
argument of perigee: 274.5417°
revolutions per day: 14.05172010
mean anomaly at epoch: 84.0211°
orbit number at epoch: 96042

The dashed part of the orbit path shows where the satellite is in the earth's shadow,  

DLR